Regional Weather Roundup
Issued by NWS San Angelo, TX

Home | Current Version | Previous Version | Text Only | Print | Product List | Glossary On
Versions: 1 2 3 4 5 6 7 8 9 10 11 12 13 14 15 16 17 18 19 20 21 22 23 24 25 26 27 28 29 30 31 32 33 34 35 36 37 38 39 40 41 42 43 44 45 46 47 48 49 50
000
ASUS44 KSJT 290710
RWRSJT
WEST CENTRAL TEXAS REGIONAL WEATHER ROUNDUP
NATIONAL WEATHER SERVICE SAN ANGELO TX
200 AM CDT WED JUL 29 2015

NOTE: "FAIR" INDICATES FEW OR NO CLOUDS BELOW 12,000 FEET WITH NO
SIGNIFICANT WEATHER AND/OR OBSTRUCTIONS TO VISIBILITY.

TXZ049-054-064>066-071>073-076>078-098-099-113-114-127-128-139-140-
154-155-168>170-290800
...LOCATIONS ACROSS WEST CENTRAL TEXAS...

CITY           SKY/WX    TMP DP  RH WIND       PRES   REMARKS
SAN ANGELO     CLEAR     82  62  50 S7        30.01R
ABILENE        CLEAR     81  62  52 SE8       30.00S
DYESS AFB      CLEAR     80  65  61 S9        29.98F
JUNCTION       CLEAR     82  71  69 S8        30.02R
SWEETWATER     CLEAR     81  62  52 S9        30.05S
BROWNWOOD      MOCLDY    81  66  61 S8        30.01S
COLEMAN        SUNNY     81  64  57 S8        30.02R
SONORA         CLEAR     82  66  57 S6        30.07S
OZONA          FAIR      79  59  50 SE3       30.05S
BRADY          CLEAR     81  68  65 SE7       30.03S
$$

TEXAS PANHANDLE/OKLAHOMA PANHANDLE

CITY           SKY/WX    TMP DP  RH WIND       PRES   REMARKS
AMARILLO       CLOUDY    68  64  87 N8        30.14F
BORGER         CLOUDY    70  67  90 W8        30.12F
CANADIAN       CLOUDY    73  66  80 CALM      30.09R
DALHART        LGT RAIN  67  64  90 E9        30.21S
DUMAS          LGT RAIN  66  65  94 N15       30.16F
GUYMON         NOT AVBL
HEREFORD       PTSUNNY   69  65  88 MISG      30.14F
PAMPA          CLOUDY    70  67  91 NW12      30.14S
PERRYTON       CLOUDY    72  66  80 NW22G28   30.12S
$$

SOUTHERN PANHANDLE/SOUTH PLAINS/ROLLING PLAINS

CITY           SKY/WX    TMP DP  RH WIND       PRES   REMARKS
LUBBOCK        PTCLDY    73  62  68 N14       30.11S
SNYDER         CLEAR     82  63  52 SE10      30.03R
CHILDRESS      PTCLDY    80  64  58 NW9       30.03R
SEMINOLE       SUNNY     75  62  62 N5        30.11R
$$

PERMIAN BASIN

CITY           SKY/WX    TMP DP  RH WIND       PRES   REMARKS
MIDLAND        CLEAR     84  59  42 S12       30.04R
ODESSA         CLEAR     84  59  42 S15       30.05R
WINK           MOCLDY    86  60  41 SE7       30.03R
$$

FAR WEST/SOUTHWEST MOUNTAINS/TRANS PECOS

CITY           SKY/WX    TMP DP  RH WIND       PRES   REMARKS
ALPINE         MOSUNNY   75  58  55 CALM      30.19S
DRYDEN           N/A     82  62  50 W6        29.98S
EL PASO        TSTM      71  64  78 N8        30.15S
FORT STOCKTON  CLEAR     81  63  54 SE10G20   30.03S
GUADALUPE PASS LGT RAIN  71  58  63 W5        30.26R
MARFA          PTCLDY    66  63  88 NE3       30.17F
PECOS          SUNNY     84  59  42 SE9       30.00S
$$

DALLAS/FORT WORTH METROPLEX

CITY           SKY/WX    TMP DP  RH WIND       PRES   REMARKS
DFW AIRPORT    CLEAR     86  65  49 S9        29.97R
FTW MEACHAM    CLEAR     87  66  49 S13       29.96S
DAL-EXECUTIVE  CLEAR     85  65  51 VRB6      29.98R
GRAND PRAIRIE  CLEAR     87  68  54 S7        29.99S
ADDISON        CLEAR     88  66  48 S5        29.99S
MESQUITE       SUNNY     78  65  63 S7        29.98S
LANCASTER      SUNNY     80  64  59 S5        29.99R
$$

NORTH CENTRAL TEXAS

CITY           SKY/WX    TMP DP  RH WIND       PRES   REMARKS
SHRMAN/DENISON SUNNY     83  67  57 SE8       30.00S
GAINESVILLE    CLEAR     78  66  66 CALM      30.00S
BRIDGEPORT     NOT AVBL
DENTON         CLEAR     82  66  58 SE5       29.97S
WAXAHACHIE     SUNNY     80  67  64 S5        30.00S
GRANBURY       SUNNY     85  66  53 SE9       29.99S
$$

WESTERN NORTH TEXAS

CITY           SKY/WX    TMP DP  RH WIND       PRES   REMARKS
WICHITA FALLS  CLEAR     77  67  71 SE5       29.97S
VERNON         SUNNY     81  60  48 SE6       29.97S
BRECKENRIDGE   SUNNY     83  64  52 S10       29.97F
COMANCHE       CLEAR     79  66  64 S6        30.02R
$$

CENTRAL AND SOUTH CENTRAL TEXAS

CITY           SKY/WX    TMP DP  RH WIND       PRES   REMARKS
AUSTIN/BERGSTM MOCLDY    77  74  90 S6        30.00S
WACO           CLEAR     84  71  65 S15       29.98S
HILLSBORO      SUNNY     83  66  56 S8        29.99S
TEMPLE         CLEAR     81  68  65 S13       30.00S
KILLEEN-GRAY   CLEAR     79  68  67 S10       30.00R
FORT HOOD      CLEAR     79  68  69 S10       29.99R HAZE
GEORGETOWN     CLEAR     81  70  69 S12       29.99F
LAGO VISTA     FAIR      78  72  81 SE8       30.03S
SAN MARCOS     PTCLDY    77  73  88 S7        30.01F
NEW BRAUNFELS  CLEAR     77  74  90 S7        29.99F
RANDOLPH AFB   CLEAR     75  72  89 S6        30.00F
SAN ANTONIO    CLEAR     80  71  74 S14       30.01F
STINSON        CLEAR     78  72  81 SE6       29.98S
PLEASANTON     NOT AVBL
LA GRANGE      CLEAR     78  76  95 CALM      29.99S
GIDDINGS       SUNNY     76  73  90 S3        30.05S
$$

EAST TEXAS

CITY           SKY/WX    TMP DP  RH WIND       PRES   REMARKS
PARIS          CLEAR     79  68  69 SE3       30.00R
CLARKSVILLE    NOT AVBL
TYLER          CLEAR     82  68  62 S8        30.00R
LONGVIEW       CLEAR     83  70  64 S9        29.99R
PALESTINE      SUNNY     82  71  70 S3        30.02S
NACOGDOCHES    CLEAR     79  72  78 S3        30.01R
$$

TEXAS HILL COUNTRY AND EDWARDS PLATEAU

CITY           SKY/WX    TMP DP  RH WIND       PRES   REMARKS
LLANO          SUNNY     82  68  61 SE3       30.04S
HORSESHOE BAY  FAIR      80  69  69 S8        30.01S
KERRVILLE      CLEAR     76  68  75 SE6       30.05S
FREDERICKSBRG  CLEAR     77  68  73 S7        30.04S
ROCKSPRINGS    MOSUNNY   79  70  73 SE12G20   30.07S
HONDO          CLEAR     78  71  79 E5        30.02R
UVALDE         SUNNY     79  71  76 E6        29.99S
DEL RIO        CLEAR     86  71  60 E13G22    29.93S
$$

SOUTHEAST TEXAS

CITY           SKY/WX    TMP DP  RH WIND       PRES   REMARKS
COLLEGE STN    CLEAR     80  74  81 S5        30.01S
CALDWELL       SUNNY     75  75 100 S3        30.04S
CROCKETT       SUNNY     81  73  78 CALM      30.04S
BRENHAM        CLEAR     80  77  90 S3        30.01S
HUNTSVILLE     CLEAR     82  74  76 SW6       30.02R
CONROE         CLEAR     79  73  82 CALM      30.02R
HOUSTON BUSH   PTCLDY    82  76  81 CALM      30.00R
HOUSTON HOBBY  PTCLDY    81  77  88 CALM      29.99S
PERLAND        CLEAR     82  77  84 CALM      30.01R
WHARTON        NOT AVBL
$$

THE UPPER TEXAS COAST

CITY           SKY/WX    TMP DP  RH WIND       PRES   REMARKS
ORANGE         SUNNY     77  77 100 CALM      30.01S
PORT ARTHUR    CLEAR     79  76  90 SW3       29.99S
GALVESTON      CLEAR     85  78  80 S7        30.00S
ANGLETON       CLEAR     79  77  94 SW3       29.99S
BAY CITY       SUNNY     77  76  98 CALM      29.99S
$$

TEXAS COASTAL BEND, RIO GRANDE PLAINS DEEP SOUTH TEXAS

CITY           SKY/WX    TMP DP  RH WIND       PRES   REMARKS
VICTORIA       CLEAR     77  77 100 S6        29.99F
BEEVILLE       PTSUNNY   75  75 100 SE5       29.98F
ROCKPORT       CLOUDY    84  78  82 S9        29.97S
PORT ARANSAS   SUNNY     81  79  94 S8        29.98S
PORT LAVACA    SUNNY     75  73  94 CALM      29.99F
CORPUS CHRISTI PTCLDY    82  77  84 S13       29.97F
KINGSVILLE NAS CLEAR     80  79  96 SE7       29.96F
COTULLA        CLEAR     81  73  76 SE10      29.96S
LAREDO         CLEAR     83  70  64 SE12      29.96S
BROWNSVILLE    PTCLDY    82  79  90 SE8       29.96F
PORT ISABEL    CLEAR     81  78  91 S9        29.95F
HEBBRONVILLE     N/A     77  72  85 SE6       29.98S
MCALLEN        MOCLDY    85  78  80 SE9       29.96F
WESLACO        PTCLDY    82  76  84 SE8       29.95F
FALFURRIAS     SUNNY     79  76  90 SE5       29.96S
EDINBURG       MOSUNNY   82  77  83 SE8       29.96F
$$



USA.gov is the U.S. government's official web portal to all federal, state and local government web resources and services.